Torna al catalogo

STARLINK-30266

AttivoComunicazioniVLEO
NORAD 57529·PAYLOAD·🇺🇸 United States

Lanciato Aug 8, 2023 da Vandenberg Space Force Base

Loading…

Prossimi Passaggi (prossime 24 ore)

TLE

AggiornatoSource: CelesTrak SupGP

Epoca: Sep 15, 2026, 01:56 UTC

1 57529C 23115J   26258.08104167 -.00066192  00000+0 -23975-2 0  2581
2 57529  43.0047  11.8247 0002175 268.4889 266.5640 15.27609878    14

Traccia STARLINK-30266 in tempo reale con AllMySat

Download on the App Store